{"data":{"norad_id":48465,"epoch":"2026-05-24T20:12:00.223200Z","epoch_age_seconds":102821,"freshness":"FRESH","line1":"1 48465U 21040AP  26144.84166925  .00029505  00000+0  46996-3 0  9999","line2":"2 48465  53.1399 188.9268 0002690  17.0824 343.0276 15.53040326278281","mean_motion":15.53040326,"eccentricity":0.000269,"inclination_deg":53.1399,"raan_deg":188.9268,"arg_perigee_deg":17.0824,"mean_anomaly_deg":343.0276,"bstar":0.00046996,"rev_number":27828,"period_min":92.721352813089,"perigee_km":406.02971715065,"apogee_km":409.68058092683,"semimajor_km":6785.9921490387,"source":"CELESTRAK","updated_at":"2026-05-25T13:38:16.719962Z"}}